CDT,Max TemperatureF,Mean TemperatureF,Min TemperatureF,Max Dew PointF,MeanDew PointF,Min DewpointF,Max Humidity, Mean Humidity, Min Humidity, Max Sea Level PressureIn, Mean Sea Level PressureIn, Min Sea Level PressureIn, Max VisibilityMiles, Mean VisibilityMiles, Min VisibilityMiles, Max Wind SpeedMPH, Mean Wind SpeedMPH, Max Gust SpeedMPH,PrecipitationIn, CloudCover, Events, WindDirDegrees
2013-3-1,39,36,32,30,29,27,89,79,65,30.19,30.13,30.09,10,6,2,14,7,,0.00,8,Snow,310
2013-3-2,36,32,26,25,22,19,81,67,52,30.27,30.22,30.15,10,10,10,17,10,22,0.00,6,,337
2013-3-3,43,32,21,30,23,17,82,65,47,30.25,30.16,30.06,10,10,10,10,3,,0.00,3,,159
2013-3-4,54,46,37,45,36,26,89,67,54,30.06,29.86,29.75,10,10,10,18,7,25,0.05,5,Rain,110
2013-3-5,46,41,36,44,31,19,90,68,39,30.17,29.96,29.76,10,9,5,24,12,34,0.07,6,Rain,309
2013-3-6,48,40,32,29,24,20,85,55,39,30.37,30.31,30.19,10,10,10,21,12,29,0.00,3,,6
2013-3-7,48,38,28,33,29,24,86,71,56,30.43,30.37,30.32,10,10,8,7,4,,0.00,1,,82
2013-3-8,53,42,32,40,33,28,85,68,48,30.43,30.33,30.20,10,9,4,12,6,,0.00,0,,74
2013-3-9,70,58,45,42,37,33,71,49,30,30.19,30.03,29.87,10,10,8,21,7,30,0.01,4,Rain,148
2013-3-10,61,56,46,55,49,40,90,80,53,29.86,29.76,29.69,10,7,1,25,13,36,0.63,7,Rain,184
2013-3-11,46,40,33,40,31,27,85,69,58,30.04,29.88,29.78,10,10,10,18,10,24,0.00,7,,274
2013-3-12,57,42,28,28,25,23,88,56,27,30.24,30.13,30.04,10,10,10,17,5,26,0.00,1,,296
2013-3-13,51,42,32,26,21,15,79,48,26,30.43,30.36,30.25,10,10,10,15,9,24,0.00,0,,320
2013-3-14,57,42,28,39,31,23,82,64,43,30.42,30.29,30.11,10,10,10,14,4,20,0.00,2,,164
2013-3-15,78,56,36,53,45,33,89,63,43,30.09,29.91,29.78,10,10,9,22,6,25,0.00,0,,206
2013-3-16,75,60,46,51,46,38,75,62,40,29.96,29.84,29.74,10,9,6,18,11,25,0.00,1,,16
2013-3-17,45,42,39,41,37,34,93,85,71,30.08,29.91,29.72,10,6,1,20,13,29,0.62,8,Rain-Thunderstorm,41
2013-3-18,55,48,41,43,39,34,93,80,52,30.03,29.77,29.68,10,9,2,16,9,23,0.70,6,Rain-Thunderstorm,322
2013-3-19,53,42,33,33,28,20,86,57,30,30.23,30.17,30.05,10,10,10,9,4,,0.00,3,,354
2013-3-20,51,42,30,32,22,8,76,52,21,30.27,30.19,30.09,10,10,10,24,9,32,0.00,2,,306
2013-3-21,42,33,25,31,23,14,92,69,39,30.14,30.06,30.00,10,6,1,9,3,,0.09,5,Snow,168
2013-3-22,43,38,33,32,30,28,92,79,57,30.04,29.99,29.95,10,7,2,12,6,,0.05,8,Rain-Snow,56
2013-3-23,51,46,41,40,33,28,77,63,52,29.99,29.90,29.73,10,10,10,16,9,,0.01,8,Rain,44
2013-3-24,46,41,36,43,37,24,93,82,62,29.91,29.63,29.51,10,6,2,24,11,34,0.20,8,Rain,337
2013-3-25,41,36,33,26,24,22,75,60,53,30.24,30.07,29.92,10,10,8,17,13,25,0.00,8,Snow,292
2013-3-26,51,41,32,27,24,21,79,57,32,30.37,30.31,30.24,10,10,10,16,8,21,0.00,2,,309
2013-3-27,53,40,27,37,29,23,85,62,42,30.42,30.36,30.30,10,10,10,9,3,,0.00,2,,135
2013-3-28,62,52,43,41,37,34,86,60,39,30.36,30.29,30.22,10,10,9,10,3,16,0.00,6,,106
2013-3-29,63,54,46,49,45,39,93,74,60,30.25,30.20,30.17,10,8,0,13,4,,0.09,4,Fog-Rain,90
2013-3-30,53,48,42,50,47,41,100,91,77,30.20,30.06,29.93,7,2,0,9,3,,0.06,8,Fog-Rain,88
2013-3-31,64,58,51,52,49,47,96,82,56,29.99,29.91,29.86,10,6,0,10,3,,0.02,4,Fog-Rain,237